sat.trackr.live / text

‹ back to catalog

STARLINK-6205

NORAD 56898 · 2023-083Y

PAYLOAD ACTIVE UNKNOWN

§ Identity

Operator
Country
US
Launch date
2023-06-12
Launch site
AFETR
Launch vehicle
Mass (kg)
RCS (m²)

Purposes: comms

External: N2YO · Heavens-Above · Gunter

§ Orbital elements

Epoch: 2026-09-19T19:07:59.538432Z

Period
94.27 min
Inclination
43.0027°
Eccentricity
0.0001804
Mean motion
15.27578192 rev/d
Perigee alt
481.8 km
Apogee alt
484.3 km
Semi-major
6,861.2 km
B*
1.9005e-5
RAAN
65.8176°
Arg perigee
265.6975°
Mean anomaly
94.3670°
Rev number
18,146

§ Raw data

STARLINK-62051 56898U 23083Y   26262.79721688  .00000261  00000+0  19005-4 0  99952 56898  43.0027  65.8176 0001804 265.6975  94.3670 15.27578192181466

JSON: /api/v1/satellites/56898 · /tle

For live sub-satellite position, see the globe view (requires WebGL).

§ Visibility from observer

Set your observer location to see the next 7 days of passes ≥ 10°. The values pass through the URL so the page stays shareable.

No JS? Fill the form by hand. The geolocation button needs JavaScript.